Hourly Weather Ruda Maleniecka

Today, 11 April, Sunday

Time Temperature Precipitation Wind Pressure Humidity
00:00 +10°C° 0 mm 1 mps 743 mmHg 78%
01:00 +8°C° 0 mm 2 mps 744 mmHg 79%
02:00 +8°C° 0 mm 2 mps 743 mmHg 79%
03:00 +8°C° 0 mm 2 mps 743 mmHg 78%
04:00 +8°C° 0 mm 2 mps 743 mmHg 78%
05:00 +9°C° 0 mm 3 mps 743 mmHg 74%
06:00 +8°C° 0 mm 4 mps 743 mmHg 71%
07:00 +10°C° 0 mm 4 mps 743 mmHg 68%
08:00 +11°C° 0 mm 4 mps 743 mmHg 62%
09:00 +13°C° 0 mm 5 mps 743 mmHg 57%
10:00 +14°C° 0 mm 5 mps 743 mmHg 52%
11:00 +15°C° 0 mm 5 mps 743 mmHg 48%
12:00 +16°C° 0 mm 5 mps 743 mmHg 44%
13:00 +17°C° 0 mm 5 mps 743 mmHg 40%
14:00 +18°C° 0 mm 4 mps 742 mmHg 44%
15:00 +17°C° 0 mm 4 mps 742 mmHg 47%
16:00 +17°C° 0 mm 3 mps 742 mmHg 51%
17:00 +14°C° 0.2 mm 3 mps 743 mmHg 60%
18:00 +13°C° 0.2 mm 4 mps 743 mmHg 69%
19:00 +11°C° 0.2 mm 4 mps 743 mmHg 77%
20:00 +11°C° 0.3 mm 4 mps 743 mmHg 80%
21:00 +11°C° 0.3 mm 4 mps 743 mmHg 82%
22:00 +10°C° 0.3 mm 4 mps 743 mmHg 85%
23:00 +10°C° 0 mm 4 mps 743 mmHg 84%

Tomorrow, 12 April, Monday

Time Temperature Precipitation Wind Pressure Humidity
00:00 +9°C° 0 mm 5 mps 743 mmHg 84%
01:00 +9°C° 0 mm 5 mps 742 mmHg 83%
02:00 +10°C° 0 mm 4 mps 742 mmHg 83%
03:00 +10°C° 0 mm 4 mps 742 mmHg 84%
04:00 +9°C° 0 mm 3 mps 742 mmHg 84%
05:00 +10°C° 0 mm 3 mps 742 mmHg 84%
06:00 +10°C° 0 mm 2 mps 742 mmHg 84%
07:00 +10°C° 0 mm 2 mps 742 mmHg 85%
08:00 +10°C° 0 mm 2 mps 742 mmHg 82%
09:00 +12°C° 0 mm 2 mps 742 mmHg 79%
10:00 +12°C° 0 mm 2 mps 742 mmHg 77%
11:00 +12°C° 0 mm 2 mps 743 mmHg 78%
12:00 +12°C° 0 mm 2 mps 743 mmHg 78%
13:00 +12°C° 0 mm 2 mps 743 mmHg 79%
14:00 +12°C° 0 mm 2 mps 743 mmHg 80%
15:00 +12°C° 0 mm 2 mps 743 mmHg 80%
16:00 +12°C° 0 mm 2 mps 743 mmHg 81%
17:00 +10°C° 0 mm 3 mps 743 mmHg 83%
18:00 +8°C° 0 mm 4 mps 744 mmHg 85%
19:00 +7°C° 0 mm 4 mps 744 mmHg 87%
20:00 +6°C° 0 mm 4 mps 745 mmHg 88%
21:00 +5°C° 0 mm 4 mps 745 mmHg 88%
22:00 +5°C° 0 mm 4 mps 745 mmHg 89%
23:00 +4°C° 0 mm 4 mps 745 mmHg 89%

Day after tomorrow, 13 April, Tuesday

Time Temperature Precipitation Wind Pressure Humidity
00:00 +4°C° 0 mm 4 mps 745 mmHg 90%
01:00 +3°C° 0 mm 4 mps 746 mmHg 91%
02:00 +3°C° 0.3 mm 4 mps 746 mmHg 92%
03:00 +1°C° 0.3 mm 4 mps 746 mmHg 93%
04:00 +1°C° 0.3 mm 4 mps 746 mmHg 95%
05:00 0°C° 0.9 mm 4 mps 746 mmHg 96%
06:00 0°C° 0.9 mm 5 mps 746 mmHg 97%
07:00 0°C° 0.9 mm 5 mps 747 mmHg 98%
08:00 0°C° 0.6 mm 5 mps 747 mmHg 97%
09:00 0°C° 0.6 mm 5 mps 747 mmHg 97%
10:00 0°C° 0.6 mm 5 mps 747 mmHg 97%
11:00 0°C° 0.4 mm 5 mps 747 mmHg 95%
12:00 +1°C° 0.4 mm 5 mps 747 mmHg 94%
13:00 +1°C° 0.4 mm 5 mps 747 mmHg 92%
14:00 +1°C° 0.6 mm 5 mps 747 mmHg 93%
15:00 +1°C° 0.6 mm 5 mps 747 mmHg 93%
16:00 +1°C° 0.6 mm 4 mps 747 mmHg 94%
17:00 +1°C° 0.9 mm 4 mps 747 mmHg 95%
18:00 0°C° 0.9 mm 4 mps 747 mmHg 96%
19:00 0°C° 0.9 mm 4 mps 747 mmHg 97%
20:00 0°C° 1.1 mm 4 mps 747 mmHg 97%
21:00 0°C° 1.1 mm 5 mps 747 mmHg 97%
22:00 -1°C° 1.1 mm 5 mps 746 mmHg 98%
23:00 -1°C° 0.9 mm 5 mps 746 mmHg 97%

14 April, Wednesday

Time Temperature Precipitation Wind Pressure Humidity
00:00 -2°C° 0.9 mm 6 mps 746 mmHg 97%
01:00 -3°C° 0.9 mm 6 mps 746 mmHg 97%
02:00 -3°C° 0.6 mm 6 mps 746 mmHg 97%
03:00 -3°C° 0.6 mm 6 mps 746 mmHg 97%
04:00 -2°C° 0.6 mm 5 mps 746 mmHg 97%
05:00 -3°C° 0.6 mm 6 mps 746 mmHg 97%
06:00 -3°C° 0.6 mm 6 mps 746 mmHg 97%
07:00 -3°C° 0.6 mm 6 mps 746 mmHg 97%
08:00 -2°C° 0.6 mm 6 mps 746 mmHg 98%
09:00 -2°C° 0.6 mm 7 mps 745 mmHg 98%
10:00 -2°C° 0.6 mm 7 mps 745 mmHg 98%
11:00 -2°C° 0.8 mm 7 mps 745 mmHg 98%
12:00 -2°C° 0.8 mm 7 mps 745 mmHg 98%
13:00 -2°C° 0.8 mm 7 mps 745 mmHg 98%
14:00 -2°C° 1.1 mm 6 mps 744 mmHg 98%
15:00 -2°C° 1.1 mm 6 mps 744 mmHg 98%
16:00 -2°C° 1.1 mm 6 mps 744 mmHg 99%
17:00 -2°C° 1.6 mm 6 mps 744 mmHg 99%
18:00 -2°C° 1.6 mm 6 mps 744 mmHg 99%
19:00 -2°C° 1.6 mm 6 mps 744 mmHg 99%
20:00 -1°C° 1.3 mm 5 mps 743 mmHg 99%
21:00 -1°C° 1.3 mm 5 mps 743 mmHg 99%
22:00 -1°C° 1.3 mm 5 mps 743 mmHg 99%
23:00 -1°C° 0.6 mm 5 mps 743 mmHg 99%

15 April, Thursday

Time Temperature Precipitation Wind Pressure Humidity
00:00 -1°C° 0.6 mm 5 mps 743 mmHg 99%
01:00 -1°C° 0.6 mm 5 mps 742 mmHg 99%
02:00 -1°C° 0.5 mm 4 mps 742 mmHg 99%
03:00 -2°C° 0.5 mm 4 mps 742 mmHg 99%
04:00 -2°C° 0.5 mm 4 mps 742 mmHg 99%
05:00 -2°C° 0.2 mm 4 mps 742 mmHg 99%
06:00 -1°C° 0.2 mm 3 mps 742 mmHg 99%
07:00 -1°C° 0.2 mm 3 mps 742 mmHg 99%
08:00 -1°C° 0.5 mm 3 mps 743 mmHg 99%
09:00 0°C° 0.5 mm 3 mps 743 mmHg 99%
10:00 0°C° 0.5 mm 3 mps 743 mmHg 99%
11:00 0°C° 0.4 mm 3 mps 743 mmHg 99%
12:00 0°C° 0.4 mm 3 mps 743 mmHg 99%
13:00 0°C° 0.4 mm 3 mps 744 mmHg 99%
14:00 0°C° 0.3 mm 3 mps 744 mmHg 99%
15:00 +1°C° 0.3 mm 2 mps 744 mmHg 99%
16:00 +2°C° 0.3 mm 2 mps 744 mmHg 99%
17:00 +1°C° 0.2 mm 3 mps 744 mmHg 99%
18:00 +1°C° 0.2 mm 3 mps 745 mmHg 99%
19:00 +1°C° 0.2 mm 3 mps 745 mmHg 99%
20:00 +1°C° 0.1 mm 3 mps 745 mmHg 99%
21:00 0°C° 0.1 mm 4 mps 746 mmHg 99%
22:00 0°C° 0.1 mm 4 mps 746 mmHg 99%
23:00 0°C° 0 mm 4 mps 746 mmHg 99%

16 April, Friday

Time Temperature Precipitation Wind Pressure Humidity
00:00 0°C° 0 mm 4 mps 746 mmHg 99%
01:00 -1°C° 0 mm 4 mps 746 mmHg 99%
02:00 +1°C° 0.1 mm 3 mps 746 mmHg 99%
03:00 +1°C° 0.1 mm 3 mps 746 mmHg 99%
04:00 +1°C° 0.1 mm 3 mps 746 mmHg 98%
05:00 +1°C° 0.2 mm 3 mps 747 mmHg 99%
06:00 0°C° 0.2 mm 4 mps 747 mmHg 99%
07:00 0°C° 0.2 mm 4 mps 747 mmHg 99%
08:00 +1°C° 0.4 mm 3 mps 748 mmHg 99%
09:00 +1°C° 0.4 mm 3 mps 748 mmHg 99%
10:00 +1°C° 0.4 mm 3 mps 749 mmHg 99%
11:00 +1°C° 0.1 mm 3 mps 749 mmHg 98%
12:00 +1°C° 0.1 mm 3 mps 749 mmHg 98%
13:00 +1°C° 0.1 mm 3 mps 749 mmHg 98%
14:00 +2°C° 0 mm 2 mps 750 mmHg 97%
15:00 +3°C° 0 mm 2 mps 750 mmHg 97%
16:00 +4°C° 0 mm 1 mps 750 mmHg 97%
17:00 +4°C° 0 mm 1 mps 750 mmHg 97%
18:00 +4°C° 0 mm 1 mps 750 mmHg 97%
19:00 +4°C° 0 mm 1 mps 751 mmHg 97%
20:00 +4°C° 0 mm 1 mps 751 mmHg 96%
21:00 +4°C° 0 mm 1 mps 751 mmHg 96%
22:00 +4°C° 0 mm 1 mps 752 mmHg 95%
23:00 +4°C° 0 mm 1 mps 752 mmHg 95%
Show more